SCP
0 0 0 0 0 0 0 0 0 0 0 0 0 0 0 0 0 0 0 0 0 0
0 0 0 0 0 0 0 0 0 0 0 0 0 0 0 0 0 0 0 0 0 0
-0 -0 -0 0 0 0 0 0 0 0 0 0 0 0 0 0 0 0 0 0 0 0
-0 -0 -0 -0 -0 0 0 0 0 0 0 0 0 0 0 0 0 0 0 0 0 0
-0 -0 -0 -0 -0 -0 -0 -0 -0 0 0 0 0 0 0 0 0 0 0 0 0 0
-0 -0 -0 -0 -0 -0 -0 -0 -0 -0 -0 0 0 0 0 0 0 0 0 0 0 0
-0 -0 -0 -0 -0 -0 -0 -0 -0 -0 -0 0 0 0 0 0 0 0 0 0 0 0
0 0 0 0 -0 0 0 0 -0 -0 0 0 0 0 0 0 0 0 0 0 0 0
0 0 0 0 0 0 0 0 -0 0 0 0 0 0 0 0 0 0 0 0 0 0
0 0 0 0 0 0 0 0 -0 0 0 0 0 0 0 0 0 0 0 0 0 0
0 0 0 0 0 0 0 0 0 0 0 0 0 0 0 0 0 0 0 0 0 0
0 0 0 0 0 0 0 0 0 0 0 0 0 0 0 0 0 0 0 0 0 0
0 0 0 0 0 0 0 0 0 0 0 0 0 0 0 0 0 0 0 0 0 0
0 0 0 0 0 0 0 0 0 0 0 0 0 0 -0 0 0 0 0 0 0 0
Wind_Speed_500mb
30 30 33 34 33 34 33 31 30 32 41 47 52 50 49 62 80 85 92 100 105 111
38 37 37 36 39 41 41 38 38 37 33 38 50 58 59 58 64 80 89 93 99 107
40 41 41 41 42 45 47 49 46 41 43 45 41 47 56 64 66 72 83 92 100 100
50 52 51 49 48 50 51 50 51 50 51 51 52 46 48 59 66 71 79 85 93 101
53 54 57 60 59 59 59 57 56 55 56 58 57 56 54 53 59 70 78 83 88 94
60 64 66 69 68 67 69 68 67 66 62 60 60 60 58 59 58 61 73 83 89 95
68 72 76 80 85 86 85 84 79 72 69 69 67 63 62 60 62 63 65 74 86 90
78 80 85 87 89 90 90 90 90 92 86 77 74 75 70 68 69 68 71 72 76 85
86 91 93 94 93 94 93 93 94 97 97 97 93 85 83 78 76 77 77 79 79 80
93 97 98 97 98 98 100 103 105 105 104 106 105 104 100 93 91 87 87 85 84 85
85 92 98 102 106 109 111 115 117 119 121 121 120 115 114 111 103 104 101 95 91 87
77 82 89 94 101 108 107 115 127 129 130 132 136 133 126 113 105 112 115 107 102 94
88 91 93 97 100 97 94 102 102 111 119 128 143 142 136 115 96 97 114 116 110 104
106 105 104 104 106 112 116 122 126 123 129 127 131 143 133 103 85 93 102 106 110 106
Wind_Direction_500mb
6 360 351 348 348 348 345 343 329 301 288 297 296 290 279 268 263 263 262 259 256 254
10 5 1 353 345 338 337 336 334 333 324 296 283 284 286 277 271 265 265 264 260 256
0 359 354 347 341 338 335 334 328 329 327 323 311 292 283 278 275 269 265 265 263 260
348 348 345 343 340 336 332 329 327 332 330 322 317 310 290 281 278 273 268 264 264 263
338 336 334 331 331 329 329 329 332 333 326 321 320 315 309 294 282 279 274 270 265 263
327 324 323 322 321 321 321 323 326 326 323 321 319 317 314 308 298 282 275 271 268 266
319 317 316 316 316 317 318 319 319 316 313 313 313 313 314 313 308 301 287 275 270 268
314 313 313 312 311 309 308 307 308 307 307 305 305 307 310 311 310 308 301 294 281 272
312 311 310 309 308 305 304 303 301 300 301 301 301 300 302 303 304 304 304 300 293 286
308 307 306 307 305 303 302 301 300 298 297 296 296 297 297 297 297 297 297 298 297 291
300 301 301 301 299 297 296 294 293 292 292 292 290 290 292 293 292 291 291 291 292 292
294 291 290 289 288 289 290 290 290 288 287 287 285 285 285 287 286 286 286 287 287 288
292 289 288 286 286 287 285 283 283 283 284 285 285 282 283 285 283 279 281 282 284 284
299 295 292 288 285 282 281 279 280 281 282 282 284 287 286 285 279 274 274 276 277 278
Wind_Speed_850mb
30 30 33 34 33 34 33 31 30 32 41 47 52 50 49 62 80 85 92 100 105 111
38 37 37 36 39 41 41 38 38 37 33 38 50 58 59 58 64 80 89 93 99 107
40 41 41 41 42 45 47 49 46 41 43 45 41 47 56 64 66 72 83 92 100 100
50 52 51 49 48 50 51 50 51 50 51 51 52 46 48 59 66 71 79 85 93 101
53 54 57 60 59 59 59 57 56 55 56 58 57 56 54 53 59 70 78 83 88 94
60 64 66 69 68 67 69 68 67 66 62 60 60 60 58 59 58 61 73 83 89 95
68 72 76 80 85 86 85 84 79 72 69 69 67 63 62 60 62 63 65 74 86 90
78 80 85 87 89 90 90 90 90 92 86 77 74 75 70 68 69 68 71 72 76 85
86 91 93 94 93 94 93 93 94 97 97 97 93 85 83 78 76 77 77 79 79 80
93 97 98 97 98 98 100 103 105 105 104 106 105 104 100 93 91 87 87 85 84 85
85 92 98 102 106 109 111 115 117 119 121 121 120 115 114 111 103 104 101 95 91 87
77 82 89 94 101 108 107 115 127 129 130 132 136 133 126 113 105 112 115 107 102 94
88 91 93 97 100 97 94 102 102 111 119 128 143 142 136 115 96 97 114 116 110 104
106 105 104 104 106 112 116 122 126 123 129 127 131 143 133 103 85 93 102 106 110 106
Wind_Direction_850mb
6 360 351 348 348 348 345 343 329 301 288 297 296 290 279 268 263 263 262 259 256 254
10 5 1 353 345 338 337 336 334 333 324 296 283 284 286 277 271 265 265 264 260 256
0 359 354 347 341 338 335 334 328 329 327 323 311 292 283 278 275 269 265 265 263 260
348 348 345 343 340 336 332 329 327 332 330 322 317 310 290 281 278 273 268 264 264 263
338 336 334 331 331 329 329 329 332 333 326 321 320 315 309 294 282 279 274 270 265 263
327 324 323 322 321 321 321 323 326 326 323 321 319 317 314 308 298 282 275 271 268 266
319 317 316 316 316 317 318 319 319 316 313 313 313 313 314 313 308 301 287 275 270 268
314 313 313 312 311 309 308 307 308 307 307 305 305 307 310 311 310 308 301 294 281 272
312 311 310 309 308 305 304 303 301 300 301 301 301 300 302 303 304 304 304 300 293 286
308 307 306 307 305 303 302 301 300 298 297 296 296 297 297 297 297 297 297 298 297 291
300 301 301 301 299 297 296 294 293 292 292 292 290 290 292 293 292 291 291 291 292 292
294 291 290 289 288 289 290 290 290 288 287 287 285 285 285 287 286 286 286 287 287 288
292 289 288 286 286 287 285 283 283 283 284 285 285 282 283 285 283 279 281 282 284 284
299 295 292 288 285 282 281 279 280 281 282 282 284 287 286 285 279 274 274 276 277 278